SWA1624 KDAL-KOKC

Flight info

Callsign SWA1624
Flight time 0h 42m
Altitude 24000
Route SWTSR7 ZEMMA TSDEL3
Aircraft B738/M-SADE2E3GIJ4RWZ/LB1D1

Departure

Time 2026-04-20 16:52
Airport Dallas Love Field (KDAL)

Arrival

Time 2026-04-20 17:35
Airport OKC Will Rogers World Airport (KOKC)
Time Latitude Longitude Altitude Speed Heading
2026-04-20 16:28 32.84646 -96.84991 477 ft 0 kts 181°
2026-04-20 16:44 32.84652 -96.84990 475 ft 4 kts 179°
2026-04-20 16:44 32.84678 -96.84991 474 ft 4 kts 176°
2026-04-20 16:44 32.84705 -96.84994 479 ft 4 kts 167°
2026-04-20 16:44 32.84730 -96.85004 480 ft 4 kts 145°
2026-04-20 16:45 32.84745 -96.85025 475 ft 2 kts 92°
2026-04-20 16:45 32.84745 -96.85032 477 ft 0 kts 91°
2026-04-20 16:48 32.84745 -96.85023 475 ft 3 kts 91°
2026-04-20 16:48 32.84744 -96.84966 483 ft 11 kts 91°
2026-04-20 16:48 32.84796 -96.84902 480 ft 13 kts 345°
2026-04-20 16:48 32.84873 -96.84979 479 ft 16 kts 316°
2026-04-20 16:49 32.84959 -96.85078 483 ft 18 kts 316°
2026-04-20 16:49 32.85039 -96.85190 480 ft 18 kts 317°
2026-04-20 16:49 32.85128 -96.85286 483 ft 17 kts 317°
2026-04-20 16:49 32.85214 -96.85377 483 ft 16 kts 323°
2026-04-20 16:50 32.85300 -96.85461 483 ft 16 kts 316°
2026-04-20 16:50 32.85378 -96.85548 483 ft 15 kts 317°
2026-04-20 16:50 32.85452 -96.85631 483 ft 14 kts 316°
2026-04-20 16:50 32.85523 -96.85712 480 ft 14 kts 316°
2026-04-20 16:51 32.85591 -96.85784 483 ft 12 kts 329°
2026-04-20 16:51 32.85660 -96.85743 484 ft 12 kts 44°
2026-04-20 16:51 32.85711 -96.85681 484 ft 6 kts 47°
2026-04-20 16:51 32.85692 -96.85639 483 ft 8 kts 135°
2026-04-20 16:52 32.85533 -96.85453 485 ft 70 kts 136°
2026-04-20 16:52 32.85002 -96.84838 488 ft 140 kts 135°
2026-04-20 16:52 32.84183 -96.83882 759 ft 173 kts 136°
2026-04-20 16:52 32.83372 -96.82933 1876 ft 158 kts 138°
2026-04-20 16:53 32.82550 -96.82032 2513 ft 168 kts 140°
2026-04-20 16:53 32.81592 -96.81047 2856 ft 195 kts 141°
2026-04-20 16:53 32.80512 -96.79938 3153 ft 218 kts 140°
2026-04-20 16:53 32.79326 -96.78683 3347 ft 242 kts 139°
2026-04-20 16:54 32.78008 -96.77278 3718 ft 261 kts 139°
2026-04-20 16:54 32.76640 -96.75817 4481 ft 266 kts 139°
2026-04-20 16:54 32.75269 -96.74318 5316 ft 268 kts 137°
2026-04-20 16:54 32.73923 -96.72760 6237 ft 272 kts 136°
2026-04-20 16:55 32.72562 -96.71174 7145 ft 277 kts 136°
2026-04-20 16:55 32.71180 -96.69568 7502 ft 278 kts 136°
2026-04-20 16:55 32.69797 -96.67938 7580 ft 281 kts 136°
2026-04-20 16:55 32.68629 -96.66093 7580 ft 282 kts 113°
2026-04-20 16:56 32.68219 -96.63804 7831 ft 288 kts 95°
2026-04-20 16:56 32.68160 -96.61444 8758 ft 290 kts 92°
2026-04-20 16:56 32.68140 -96.59043 9844 ft 291 kts 92°
2026-04-20 16:56 32.68207 -96.56567 10406 ft 313 kts 81°
2026-04-20 16:57 32.69141 -96.54118 10696 ft 341 kts 50°
2026-04-20 16:57 32.71039 -96.52452 11425 ft 350 kts 22°
2026-04-20 16:57 32.73379 -96.51611 12347 ft 353 kts 15°
2026-04-20 16:57 32.75775 -96.50844 13193 ft 358 kts 15°
2026-04-20 16:58 32.78188 -96.50022 14005 ft 363 kts 16°
2026-04-20 16:58 32.80706 -96.49603 14765 ft 368 kts 355°
2026-04-20 16:58 32.83188 -96.50330 15598 ft 370 kts 335°
2026-04-20 16:58 32.85322 -96.51967 16391 ft 372 kts 321°
2026-04-20 16:59 32.87354 -96.53928 17126 ft 377 kts 320°
2026-04-20 16:59 32.89384 -96.55950 17822 ft 382 kts 319°
2026-04-20 16:59 32.91435 -96.58003 18526 ft 386 kts 319°
2026-04-20 16:59 32.93505 -96.60068 19236 ft 390 kts 319°
2026-04-20 17:00 32.97664 -96.64177 20998 ft 385 kts 320°
2026-04-20 17:00 32.99701 -96.66177 21856 ft 383 kts 320°
2026-04-20 17:00 33.01764 -96.68201 22623 ft 383 kts 320°
2026-04-20 17:01 33.03823 -96.70219 23366 ft 383 kts 320°
2026-04-20 17:01 33.05888 -96.72243 23817 ft 385 kts 320°
2026-04-20 17:01 33.07948 -96.74263 23938 ft 383 kts 320°
2026-04-20 17:01 33.10021 -96.76298 23949 ft 391 kts 320°
2026-04-20 17:02 33.12166 -96.78406 23966 ft 407 kts 320°
2026-04-20 17:02 33.14394 -96.80596 23961 ft 422 kts 320°
2026-04-20 17:02 33.16695 -96.82860 23959 ft 435 kts 320°
2026-04-20 17:02 33.19060 -96.85188 23958 ft 446 kts 320°
2026-04-20 17:03 33.21451 -96.87542 23959 ft 456 kts 320°
2026-04-20 17:03 33.23918 -96.89973 23948 ft 463 kts 320°
2026-04-20 17:03 33.26411 -96.92432 23931 ft 463 kts 320°
2026-04-20 17:03 33.28892 -96.94880 23928 ft 462 kts 320°
2026-04-20 17:04 33.30533 -96.96501 23940 ft 461 kts 320°
2026-04-20 17:04 33.33010 -96.98950 23937 ft 461 kts 320°
2026-04-20 17:04 33.35484 -97.01398 23941 ft 460 kts 320°
2026-04-20 17:04 33.37955 -97.03844 23943 ft 460 kts 320°
2026-04-20 17:05 33.40418 -97.06283 23942 ft 459 kts 320°
2026-04-20 17:05 33.42940 -97.08641 23931 ft 460 kts 328°
2026-04-20 17:05 33.45839 -97.10118 23797 ft 462 kts 345°
2026-04-20 17:05 33.49026 -97.10553 23536 ft 460 kts
2026-04-20 17:06 33.52206 -97.10195 23325 ft 457 kts
2026-04-20 17:06 33.55359 -97.09753 23074 ft 456 kts
2026-04-20 17:06 33.58506 -97.09300 22973 ft 455 kts
2026-04-20 17:06 33.61656 -97.08857 22949 ft 455 kts
2026-04-20 17:07 33.64799 -97.08430 22945 ft 455 kts
2026-04-20 17:07 33.67951 -97.08016 22941 ft 455 kts
2026-04-20 17:07 33.71074 -97.07614 22941 ft 455 kts
2026-04-20 17:07 33.74260 -97.07208 22944 ft 456 kts
2026-04-20 17:08 33.77404 -97.06810 22958 ft 462 kts
2026-04-20 17:08 33.80626 -97.06402 22951 ft 465 kts
2026-04-20 17:08 33.83840 -97.05994 22937 ft 463 kts
2026-04-20 17:08 33.87054 -97.05585 22938 ft 463 kts
2026-04-20 17:09 33.90262 -97.05177 22944 ft 463 kts
2026-04-20 17:09 33.93465 -97.04768 22945 ft 464 kts
2026-04-20 17:09 33.96681 -97.04357 22944 ft 464 kts
2026-04-20 17:09 33.99897 -97.03946 22944 ft 464 kts
2026-04-20 17:10 34.03067 -97.03541 22945 ft 464 kts
2026-04-20 17:10 34.06286 -97.03128 22944 ft 464 kts
2026-04-20 17:10 34.09494 -97.02718 22944 ft 464 kts
2026-04-20 17:10 34.12701 -97.02306 22945 ft 464 kts
2026-04-20 17:11 34.15908 -97.01895 22944 ft 464 kts
2026-04-20 17:11 34.19122 -97.01482 22944 ft 464 kts
2026-04-20 17:11 34.22337 -97.01069 22944 ft 463 kts
2026-04-20 17:11 34.25541 -97.00657 22941 ft 460 kts
2026-04-20 17:12 34.28652 -97.00257 22925 ft 439 kts
2026-04-20 17:12 34.31632 -96.99873 22926 ft 420 kts
2026-04-20 17:12 34.34484 -96.99505 22741 ft 409 kts
2026-04-20 17:12 34.37260 -96.99259 22401 ft 401 kts 357°
2026-04-20 17:13 34.39964 -96.99938 21909 ft 397 kts 338°
2026-04-20 17:13 34.42436 -97.01390 21446 ft 392 kts 332°
2026-04-20 17:13 34.44836 -97.02948 20946 ft 390 kts 331°
2026-04-20 17:13 34.47217 -97.04519 20455 ft 388 kts 331°
2026-04-20 17:14 34.49579 -97.06072 19974 ft 385 kts 331°
2026-04-20 17:14 34.51937 -97.07607 19492 ft 382 kts 331°
2026-04-20 17:14 34.54248 -97.09101 19020 ft 380 kts 331°
2026-04-20 17:14 34.56581 -97.10601 18540 ft 377 kts 332°
2026-04-20 17:15 34.58900 -97.12088 18072 ft 375 kts 332°
2026-04-20 17:15 34.61204 -97.13565 17603 ft 372 kts 332°
2026-04-20 17:15 34.63488 -97.15029 17133 ft 370 kts 332°
2026-04-20 17:15 34.65763 -97.16488 16673 ft 368 kts 332°
2026-04-20 17:16 34.68022 -97.17938 16019 ft 368 kts 332°
2026-04-20 17:16 34.70259 -97.19375 15456 ft 359 kts 331°
2026-04-20 17:16 34.72471 -97.20797 14984 ft 357 kts 331°
2026-04-20 17:16 34.74645 -97.22195 14528 ft 356 kts 331°
2026-04-20 17:17 34.76830 -97.23601 14064 ft 354 kts 331°
2026-04-20 17:17 34.78993 -97.25019 13666 ft 350 kts 329°
2026-04-20 17:17 34.81054 -97.26535 13347 ft 344 kts 327°
2026-04-20 17:17 34.83073 -97.28081 13009 ft 340 kts 327°
2026-04-20 17:18 34.85050 -97.29589 12890 ft 331 kts 327°
2026-04-20 17:18 34.86958 -97.31029 12738 ft 322 kts 327°
2026-04-20 17:18 34.88838 -97.32440 12601 ft 313 kts 327°
2026-04-20 17:18 34.90679 -97.33826 12246 ft 312 kts 327°
2026-04-20 17:19 34.92523 -97.35228 11904 ft 311 kts 327°
2026-04-20 17:19 34.94353 -97.36622 11559 ft 310 kts 327°
2026-04-20 17:19 34.96177 -97.38012 11218 ft 308 kts 327°
2026-04-20 17:19 34.98000 -97.39403 10874 ft 307 kts 327°
2026-04-20 17:20 34.99813 -97.40785 10532 ft 306 kts 327°
2026-04-20 17:20 35.01591 -97.42141 10194 ft 305 kts 327°
2026-04-20 17:20 35.03385 -97.43510 9857 ft 303 kts 327°
2026-04-20 17:20 35.05149 -97.44855 9731 ft 295 kts 327°
2026-04-20 17:21 35.06881 -97.46153 9505 ft 290 kts 332°
2026-04-20 17:21 35.08812 -97.46809 9205 ft 289 kts 355°
2026-04-20 17:21 35.10819 -97.46930 8921 ft 288 kts 357°
2026-04-20 17:21 35.12820 -97.47033 8616 ft 287 kts 357°
2026-04-20 17:22 35.14812 -97.47148 8314 ft 286 kts 357°
2026-04-20 17:22 35.16793 -97.47270 8018 ft 284 kts 356°
2026-04-20 17:22 35.18766 -97.47395 7722 ft 283 kts 356°
2026-04-20 17:22 35.20706 -97.47518 7434 ft 282 kts 356°
2026-04-20 17:23 35.22664 -97.47643 7133 ft 281 kts 356°
2026-04-20 17:23 35.24607 -97.47768 6937 ft 277 kts 356°
2026-04-20 17:23 35.26507 -97.47890 6804 ft 269 kts 356°
2026-04-20 17:23 35.28358 -97.48008 6682 ft 262 kts 356°
2026-04-20 17:24 35.30164 -97.48124 6521 ft 257 kts 356°
2026-04-20 17:24 35.31939 -97.48239 6334 ft 253 kts 356°
2026-04-20 17:24 35.33690 -97.48352 6147 ft 250 kts 356°
2026-04-20 17:24 35.35416 -97.48464 5966 ft 247 kts 356°
2026-04-20 17:25 35.37122 -97.48574 5779 ft 244 kts 356°
2026-04-20 17:25 35.38785 -97.48681 5603 ft 240 kts 357°
2026-04-20 17:25 35.40445 -97.48708 5433 ft 236 kts 360°
2026-04-20 17:25 35.42082 -97.48699 5279 ft 234 kts 360°
2026-04-20 17:26 35.43726 -97.48692 5074 ft 236 kts 360°
2026-04-20 17:26 35.45362 -97.48689 4840 ft 234 kts 360°
2026-04-20 17:26 35.46974 -97.48717 4588 ft 234 kts 358°
2026-04-20 17:26 35.48604 -97.48758 4334 ft 233 kts 358°
2026-04-20 17:27 35.50224 -97.48800 4083 ft 232 kts 358°
2026-04-20 17:27 35.51841 -97.48843 3826 ft 231 kts 358°
2026-04-20 17:27 35.53448 -97.48888 3677 ft 231 kts 358°
2026-04-20 17:27 35.55072 -97.48934 3638 ft 235 kts 358°
2026-04-20 17:28 35.56678 -97.48976 3632 ft 232 kts 359°
2026-04-20 17:28 35.58280 -97.49014 3621 ft 230 kts 358°
2026-04-20 17:28 35.59879 -97.49054 3634 ft 231 kts 358°
2026-04-20 17:28 35.61487 -97.49097 3633 ft 232 kts 358°
2026-04-20 17:29 35.63080 -97.49321 3614 ft 231 kts 336°
2026-04-20 17:29 35.64259 -97.50573 3628 ft 226 kts 296°
2026-04-20 17:29 35.64489 -97.52425 3632 ft 221 kts 255°
2026-04-20 17:29 35.63686 -97.53975 3638 ft 217 kts 217°
2026-04-20 17:30 35.62437 -97.54945 3624 ft 206 kts 207°
2026-04-20 17:30 35.61190 -97.55697 3628 ft 192 kts 205°
2026-04-20 17:30 35.60002 -97.56403 3639 ft 188 kts 205°
2026-04-20 17:30 35.58844 -97.57100 3633 ft 188 kts 206°
2026-04-20 17:31 35.57673 -97.57813 3624 ft 187 kts 206°
2026-04-20 17:31 35.56503 -97.58528 3626 ft 187 kts 205°
2026-04-20 17:31 35.55258 -97.58903 3633 ft 184 kts 180°
2026-04-20 17:31 35.53977 -97.58895 3629 ft 185 kts 180°
2026-04-20 17:32 35.52706 -97.58897 3636 ft 185 kts 180°
2026-04-20 17:32 35.51416 -97.58899 3635 ft 186 kts 180°
2026-04-20 17:32 35.50122 -97.58900 3612 ft 186 kts 180°
2026-04-20 17:32 35.48834 -97.58900 3316 ft 186 kts 180°
2026-04-20 17:33 35.47554 -97.58900 2903 ft 181 kts 180°
2026-04-20 17:33 35.46335 -97.58898 2557 ft 171 kts 180°
2026-04-20 17:33 35.45169 -97.58893 2241 ft 163 kts 180°
2026-04-20 17:33 35.44065 -97.58898 2009 ft 153 kts 181°
2026-04-20 17:34 35.43010 -97.58900 1811 ft 150 kts 180°
2026-04-20 17:34 35.41984 -97.58897 1611 ft 149 kts 180°
2026-04-20 17:34 35.40942 -97.58896 1408 ft 150 kts 180°
2026-04-20 17:34 35.39907 -97.58895 1291 ft 141 kts 180°
2026-04-20 17:35 35.39102 -97.58895 1293 ft 85 kts 180°
2026-04-20 17:35 35.38715 -97.58894 1293 ft 31 kts 180°
2026-04-20 17:35 35.38556 -97.58958 1292 ft 16 kts 248°
2026-04-20 17:35 35.38605 -97.59056 1293 ft 15 kts 344°
2026-04-20 17:36 35.38709 -97.59062 1290 ft 15 kts 360°
2026-04-20 17:36 35.38811 -97.59062 1290 ft 14 kts
2026-04-20 17:36 35.38909 -97.59062 1292 ft 14 kts
2026-04-20 17:36 35.39003 -97.59062 1292 ft 14 kts 360°
2026-04-20 17:37 35.39113 -97.59063 1290 ft 18 kts
2026-04-20 17:37 35.39213 -97.59106 1291 ft 15 kts 287°
2026-04-20 17:37 35.39216 -97.59234 1293 ft 15 kts 270°
2026-04-20 17:37 35.39216 -97.59357 1294 ft 14 kts 270°
2026-04-20 17:38 35.39216 -97.59475 1294 ft 14 kts 270°
2026-04-20 17:38 35.39271 -97.59533 1295 ft 12 kts 358°
2026-04-20 17:38 35.39351 -97.59539 1297 ft 11 kts 341°
2026-04-20 17:38 35.39384 -97.59619 1296 ft 11 kts 274°
2026-04-20 17:39 35.39397 -97.59708 1296 ft 7 kts 286°
2026-04-20 17:39 35.39433 -97.59721 1296 ft 6 kts 26°
2026-04-20 17:39 35.39459 -97.59700 1296 ft 1 kts 34°